| time (UTC) | temp F | wind direction | speed knots | gust knots | rain 1hr in | rain 24hr in | rain mn in | humidity % | barometer mb |
| 20260506181501 | 47 | 346 | 1.7 | 4.3 | 0.01 | 1.07 | 0.79 | 87 | 1011.1 |
| 20260506180005 | 47 | 21 | 1.7 | 3.5 | 0.01 | 1.07 | 0.79 | 87 | 1011.3 |
| 20260506174500 | 47 | 18 | 1.7 | 3.5 | 0.01 | 1.07 | 0.79 | 89 | 1011.3 |
| 20260506171500 | 47 | 309 | 1.7 | 4.3 | 0.00 | 1.06 | 0.78 | 89 | 1010.6 |
| 20260506164502 | 46 | 55 | 0.9 | 3.5 | 0.00 | 1.06 | 0.78 | 92 | 1010.6 |
| 20260506163000 | 46 | 348 | 0.9 | 3.5 | 0.00 | 1.06 | 0.78 | 93 | 1010.6 |
| 20260506161500 | 45 | 319 | 0.9 | 3.5 | 0.00 | 1.06 | 0.78 | 94 | 1010.6 |
| 20260506160002 | 45 | 9 | 1.7 | 3.5 | 0.00 | 1.06 | 0.78 | 94 | 1010.5 |
| 20260506153000 | 45 | 12 | 1.7 | 3.5 | 0.00 | 1.06 | 0.78 | 94 | 1010.4 |
| 20260506151459 | 45 | 13 | 1.7 | 3.5 | 0.00 | 1.06 | 0.78 | 95 | 1010.2 |
| 20260506150005 | 45 | 43 | 0.9 | 3.5 | 0.00 | 1.06 | 0.78 | 94 | 1010.1 |
| 20260506144500 | 44 | 56 | 1.7 | 3.5 | 0.01 | 1.06 | 0.78 | 95 | 1010.2 |
| 20260506142959 | 44 | 86 | 1.7 | 5.2 | 0.01 | 1.06 | 0.78 | 94 | 1010.1 |
| 20260506141459 | 44 | 81 | 1.7 | 3.5 | 0.03 | 1.06 | 0.78 | 95 | 1010.1 |
| 20260506140002 | 44 | 80 | 1.7 | 4.3 | 0.04 | 1.06 | 0.78 | 95 | 1010.0 |
| 20260506134459 | 44 | 29 | 0.9 | 3.5 | 0.04 | 1.05 | 0.77 | 95 | 1009.9 |
| 20260506132959 | 44 | 77 | 2.6 | 4.3 | 0.05 | 1.05 | 0.77 | 95 | 1010.0 |
| 20260506131459 | 44 | 155 | 1.7 | 4.3 | 0.04 | 1.03 | 0.75 | 95 | 1009.8 |
| 20260506130005 | 44 | 78 | 1.7 | 3.5 | 0.03 | 1.02 | 0.74 | 95 | 1009.8 |
| 20260506124501 | 44 | 77 | 1.7 | 3.5 | 0.03 | 1.01 | 0.73 | 95 | 1009.8 |
| 20260506122959 | 44 | 71 | 1.7 | 4.3 | 0.03 | 1.00 | 0.72 | 96 | 1009.7 |
| 20260506121459 | 44 | 92 | 0.9 | 3.5 | 0.04 | 0.99 | 0.71 | 95 | 1009.6 |
| 20260506120005 | 43 | 92 | 2.6 | 5.2 | 0.04 | 0.99 | 0.71 | 95 | 1009.7 |
| 20260506114500 | 44 | 71 | 2.6 | 4.3 | 0.04 | 0.98 | 0.70 | 95 | 1009.9 |
| 20260506113000 | 44 | 109 | 1.7 | 4.3 | 0.05 | 0.97 | 0.69 | 96 | 1009.7 |
| 20260506111459 | 44 | 45 | 1.7 | 5.2 | 0.04 | 0.95 | 0.67 | 96 | 1009.6 |
| 20260506110002 | 44 | 88 | 1.7 | 7.8 | 0.05 | 0.94 | 0.66 | 96 | 1009.4 |
| 20260506104459 | 44 | 13 | 1.7 | 4.3 | 0.06 | 0.94 | 0.66 | 96 | 1009.1 |
| 20260506102959 | 44 | 73 | 1.7 | 5.2 | 0.06 | 0.92 | 0.64 | 96 | 1009.4 |
| 20260506101458 | 44 | 73 | 0.9 | 2.6 | 0.07 | 0.91 | 0.63 | 96 | 1009.7 |
| 20260506100001 | 44 | 55 | 1.7 | 4.3 | 0.05 | 0.89 | 0.61 | 96 | 1009.6 |
| 20260506094459 | 44 | 102 | 1.7 | 6.1 | 0.05 | 0.88 | 0.60 | 96 | 1009.6 |
| 20260506092959 | 44 | 319 | 0.9 | 4.3 | 0.04 | 0.86 | 0.58 | 96 | 1009.8 |
| 20260506091459 | 45 | 40 | 0.9 | 6.1 | 0.04 | 0.84 | 0.56 | 96 | 1009.4 |
| 20260506090001 | 45 | 74 | 0.9 | 2.6 | 0.05 | 0.84 | 0.56 | 96 | 1009.4 |
| 20260506084458 | 45 | 313 | 1.7 | 4.3 | 0.06 | 0.83 | 0.55 | 96 | 1009.5 |
| 20260506082959 | 45 | 27 | 0.9 | 3.5 | 0.08 | 0.82 | 0.54 | 96 | 1009.6 |
| 20260506081458 | 45 | 92 | 1.7 | 7.0 | 0.09 | 0.80 | 0.52 | 96 | 1009.8 |
| 20260506072959 | 46 | 50 | 1.7 | 3.5 | 0.11 | 0.75 | 0.46 | 96 | 1009.6 |
| 20260506071459 | 46 | 17 | 1.7 | 4.3 | 0.10 | 0.72 | 0.43 | 96 | 1009.5 |
| 20260506061458 | 47 | 33 | 1.7 | 4.3 | 0.17 | 0.63 | 0.33 | 96 | 1010.0 |
| 20260506044458 | 48 | 103 | 0.0 | 1.7 | 0.10 | 0.39 | 0.09 | 96 | 1010.3 |
| 20260506042958 | 49 | 103 | 0.0 | 2.6 | 0.08 | 0.35 | 0.05 | 96 | 1010.1 |
| 20260506041459 | 48 | 103 | 0.9 | 2.6 | 0.07 | 0.32 | 0.02 | 96 | 1010.1 |
| 20260506040007 | 48 | 103 | 0.0 | 1.7 | 0.06 | 0.30 | 0.00 | 96 | 1010.3 |
| 20260506034501 | 48 | 103 | 0.9 | 2.6 | 0.05 | 0.29 | 0.29 | 96 | 1010.5 |
| 20260506033004 | 48 | 103 | 0.9 | 2.6 | 0.03 | 0.27 | 0.27 | 96 | 1010.7 |
| 20260506031501 | 48 | 103 | 0.9 | 2.6 | 0.01 | 0.25 | 0.25 | 96 | 1010.8 |
| 20260506030005 | 48 | 103 | 0.9 | 2.6 | 0.00 | 0.24 | 0.24 | 96 | 1010.9 |
| 20260506024502 | 48 | 90 | 0.0 | 0.0 | 0.01 | 0.24 | 0.24 | 96 | 1010.9 |
| 20260506021502 | 48 | 137 | 0.0 | 1.7 | 0.04 | 0.24 | 0.24 | 95 | 1011.0 |
| 20260506020005 | 48 | 137 | 0.0 | 1.7 | 0.05 | 0.24 | 0.24 | 95 | 1010.9 |
| 20260506014501 | 48 | 137 | 0.0 | 0.0 | 0.04 | 0.23 | 0.23 | 95 | 1011.0 |
| 20260506011501 | 48 | 137 | 0.0 | 0.9 | 0.04 | 0.20 | 0.20 | 95 | 1011.0 |
| 20260506004501 | 48 | 137 | 0.0 | 0.0 | 0.04 | 0.19 | 0.19 | 94 | 1010.2 |
| 20260506003001 | 48 | 137 | 0.9 | 1.7 | 0.04 | 0.18 | 0.18 | 94 | 1010.2 |
| 20260506001501 | 48 | 137 | 0.0 | 0.9 | 0.03 | 0.16 | 0.16 | 93 | 1010.1 |
| 20260505231501 | 48 | 306 | 0.9 | 2.6 | 0.04 | 0.13 | 0.13 | 91 | 1010.0 |
| 20260505230004 | 49 | 289 | 0.9 | 2.6 | 0.04 | 0.12 | 0.12 | 90 | 1009.8 |
| 20260505224500 | 49 | 290 | 1.7 | 3.5 | 0.06 | 0.11 | 0.11 | 89 | 1009.5 |
| 20260505220006 | 52 | 343 | 3.5 | 7.8 | 0.06 | 0.08 | 0.08 | 83 | 1009.4 |
| 20260505214500 | 55 | 275 | 5.2 | 13.9 | 0.03 | 0.05 | 0.05 | 84 | 1009.1 |
| 20260505213000 | 60 | 304 | 5.2 | 14.8 | 0.00 | 0.02 | 0.02 | 77 | 1008.3 |
| 20260505204500 | 63 | 232 | 6.1 | 11.3 | 0.00 | 0.02 | 0.02 | 72 | 1006.9 |
| 20260505203001 | 64 | 213 | 6.1 | 12.2 | 0.00 | 0.02 | 0.02 | 71 | 1006.7 |
| 20260505201500 | 65 | 290 | 6.1 | 13.9 | 0.00 | 0.02 | 0.02 | 68 | 1006.4 |
| 20260505200004 | 65 | 273 | 7.8 | 14.8 | 0.00 | 0.02 | 0.02 | 68 | 1006.5 |
| 20260505194500 | 66 | 227 | 7.0 | 18.2 | 0.00 | 0.02 | 0.02 | 67 | 1006.7 |
| 20260505193000 | 66 | 169 | 7.8 | 16.5 | 0.00 | 0.02 | 0.02 | 66 | 1006.6 |
| 20260505191500 | 68 | 186 | 7.8 | 16.5 | 0.00 | 0.02 | 0.02 | 65 | 1006.2 |
| 20260505183000 | 67 | 226 | 8.7 | 22.6 | 0.00 | 0.02 | 0.02 | 65 | 1006.4 |